Notices

What's New in latest Release from April 7th, 2021:

- Updated Glossary, including Speed of Maximum Gust, and Total Hourly Precipitation

- Updated national and regional climate services offices contacts and prices information

- Addition of station inventory lists for 1981-2010, 1971-2000, and 1961-1990 Normals.

If you haven't already, please take our survey and provide feedback about our website: https://eccc.sondage-survey.ca/f/LanguageSelection.aspx?s=442ca660-fcf1-47c0-95a9-59707d6fd709

Hourly Data Report for April 18, 2017

KENORA A
ONTARIO

49°47'18.000" N
94°21'47.000" W
409.70 m
6034076
71850
YQK

Download Data

Hourly Data (April 2017)
Hourly Data Report for April 18, 2017
TIME
LST
Temp Definition
°C
Dew Point Definition
°C
Rel Hum Definition
%
Precip. Amount Definition
mm

Wind Dir Definition
10's deg

Wind Spd Definition
km/h
Visibility Definition
km
Stn Press Definition
kPa
Hmdx Definition


Wind Chill Definition


Weather Definition


00:00 -0.6 -1.5 94   12 6 24.1 96.97   -3 Mainly Clear
01:00 0.6 -1.0 89   14 9 24.1 96.90     LegendNANA
02:00 0.7 -0.6 91   15 5 24.1 96.82     LegendNANA
03:00 0.6 -0.4 93   16 4 24.1 96.80     Mostly Cloudy
04:00 0.4 -0.5 94   11 6 24.1 96.75     LegendNANA
05:00 0.6 -0.4 93   12 8 24.1 96.73     LegendNANA
06:00 0.8 -0.5 91   14 11 24.1 96.70     Cloudy
07:00 0.6 -0.4 93   12 10 24.1 96.64     LegendNANA
08:00 1.3 -0.3 89   13 11 24.1 96.56     LegendNANA
09:00 1.6 -0.2 88   12 9 24.1 96.55     Cloudy
10:00 2.2 -0.1 85   11 4 24.1 96.54     LegendNANA
11:00 3.5 0.2 79   36 11 24.1 96.46     LegendNANA
12:00 4.8 0.6 74   4 12 24.1 96.41     Cloudy
13:00 6.5 0.4 65   2 13 24.1 96.40     LegendNANA
14:00 7.0 0.9 65   2 11 24.1 96.36     LegendNANA
15:00 7.8 0.8 61   3 7 24.1 96.41     Cloudy
16:00 7.6 0.1 59   35 16 24.1 96.41     LegendNANA
17:00 8.2 0.2 57   2 11 24.1 96.49     LegendNANA
18:00 7.7 0.2 59   1 8 24.1 96.53     Mostly Cloudy
19:00 7.3 -1.1 55   34 9 24.1 96.58     LegendNANA
20:00 6.2 -1.0 60   33 4 24.1 96.66     LegendNANA
21:00 5.0 -1.9 61   35 7 24.1 96.72     Mainly Clear
22:00 4.3 -1.5 66   34 7 24.1 96.80     LegendNANA
23:00 2.0 -1.8 76   1 9 24.1 96.83     LegendNANA

Notes on Data Quality.

Legend

  • E = Estimated
  • M = Missing
  • NA = Not Available*
  • [empty] = Indicates an unobserved value
Date modified: